| time (UTC) | temp F | wind direction | speed MPH | gust MPH | rain 1hr in | rain 24hr in | rain mn in | humidity % | barometer mb |
| 20260508221539 | 63 | 271 | 5.0 | 10.0 | 0.00 | 0.00 | 0.00 | 65 | 1023.0 |
| 20260508220045 | 62 | 218 | 4.0 | 9.0 | 0.00 | 0.00 | 0.00 | 67 | 1023.1 |
| 20260508214542 | 61 | 246 | 6.0 | 10.0 | 0.00 | 0.00 | 0.00 | 67 | 1023.0 |
| 20260508213047 | 62 | 281 | 4.0 | 9.0 | 0.00 | 0.00 | 0.00 | 65 | 1022.9 |
| 20260508211543 | 61 | 300 | 2.0 | 8.0 | 0.00 | 0.00 | 0.00 | 67 | 1022.9 |
| 20260508210047 | 60 | 216 | 3.0 | 8.0 | 0.00 | 0.00 | 0.00 | 70 | 1022.8 |
| 20260508204542 | 59 | 227 | 2.0 | 10.0 | 0.00 | 0.00 | 0.00 | 70 | 1022.9 |
| 20260508203049 | 59 | 296 | 4.0 | 10.0 | 0.00 | 0.00 | 0.00 | 70 | 1022.9 |
| 20260508201556 | 59 | 0 | 1.0 | 6.0 | 0.00 | 0.00 | 0.00 | 68 | 1022.8 |
| 20260508200050 | 58 | 217 | 1.0 | 6.0 | 0.00 | 0.00 | 0.00 | 70 | 1022.6 |
| 20260508194540 | 59 | 221 | 2.0 | 5.0 | 0.00 | 0.00 | 0.00 | 69 | 1022.5 |
| 20260508193041 | 58 | 0 | 2.0 | 6.0 | 0.00 | 0.00 | 0.00 | 69 | 1022.7 |
| 20260508191537 | 57 | 191 | 2.0 | 7.0 | 0.00 | 0.00 | 0.00 | 71 | 1022.7 |
| 20260508190051 | 56 | 215 | 1.0 | 5.0 | 0.00 | 0.00 | 0.00 | 74 | 1022.8 |
| 20260508184542 | 55 | 179 | 1.0 | 7.0 | 0.00 | 0.00 | 0.00 | 75 | 1022.7 |
| 20260508183041 | 55 | 169 | 2.0 | 6.0 | 0.00 | 0.00 | 0.00 | 75 | 1022.7 |
| 20260508181605 | 55 | 200 | 4.0 | 9.0 | 0.00 | 0.00 | 0.00 | 76 | 1022.7 |
| 20260508180050 | 55 | 169 | 1.0 | 7.0 | 0.00 | 0.00 | 0.00 | 76 | 1022.6 |
| 20260508174538 | 55 | 197 | 1.0 | 6.0 | 0.00 | 0.00 | 0.00 | 76 | 1022.5 |
| 20260508173047 | 54 | 0 | 2.0 | 6.0 | 0.00 | 0.00 | 0.00 | 77 | 1022.4 |
| 20260508171542 | 54 | 208 | 3.0 | 9.0 | 0.00 | 0.00 | 0.00 | 78 | 1022.2 |
| 20260508170041 | 54 | 151 | 4.0 | 8.0 | 0.00 | 0.00 | 0.00 | 78 | 1022.2 |
| 20260508164543 | 54 | 192 | 3.0 | 9.0 | 0.00 | 0.00 | 0.00 | 78 | 1022.1 |
| 20260508163040 | 53 | 190 | 3.0 | 7.0 | 0.00 | 0.00 | 0.00 | 80 | 1021.9 |
| 20260508161545 | 53 | 0 | 0.0 | 5.0 | 0.00 | 0.00 | 0.00 | 82 | 1021.8 |
| 20260508160044 | 53 | 165 | 1.0 | 4.0 | 0.00 | 0.00 | 0.00 | 82 | 1021.5 |
| 20260508154551 | 52 | 198 | 0.0 | 2.0 | 0.00 | 0.00 | 0.00 | 83 | 1021.6 |
| 20260508153041 | 52 | 0 | 0.0 | 2.0 | 0.00 | 0.00 | 0.00 | 85 | 1021.4 |
| 20260508151542 | 52 | 0 | 0.0 | 4.0 | 0.00 | 0.00 | 0.00 | 85 | 1021.1 |
| 20260508150041 | 51 | 146 | 1.0 | 5.0 | 0.00 | 0.00 | 0.00 | 87 | 1020.7 |
| 20260508144537 | 51 | 0 | 0.0 | 2.0 | 0.00 | 0.00 | 0.00 | 88 | 1020.5 |
| 20260508143042 | 50 | 0 | 0.0 | 1.0 | 0.00 | 0.00 | 0.00 | 89 | 1020.5 |
| 20260508141550 | 49 | 0 | 0.0 | 4.0 | 0.00 | 0.00 | 0.00 | 89 | 1020.3 |
| 20260508140052 | 49 | 78 | 1.0 | 4.0 | 0.00 | 0.00 | 0.00 | 90 | 1020.1 |
| 20260508134541 | 49 | 85 | 1.0 | 4.0 | 0.00 | 0.00 | 0.00 | 91 | 1020.3 |
| 20260508133041 | 48 | 62 | 0.0 | 2.0 | 0.00 | 0.00 | 0.00 | 91 | 1020.5 |
| 20260508131541 | 48 | 0 | 0.0 | 2.0 | 0.00 | 0.00 | 0.00 | 91 | 1020.6 |
| 20260508130046 | 48 | 0 | 0.0 | 1.0 | 0.00 | 0.00 | 0.00 | 91 | 1020.7 |
| 20260508124542 | 48 | 0 | 0.0 | 1.0 | 0.00 | 0.00 | 0.00 | 91 | 1020.5 |
| 20260508123039 | 48 | 0 | 0.0 | 1.0 | 0.00 | 0.00 | 0.00 | 91 | 1020.5 |
| 20260508121544 | 47 | 0 | 0.0 | 1.0 | 0.00 | 0.00 | 0.00 | 92 | 1020.4 |
| 20260508120049 | 47 | 0 | 0.0 | 1.0 | 0.00 | 0.00 | 0.00 | 92 | 1020.3 |
| 20260508114538 | 47 | 0 | 0.0 | 1.0 | 0.00 | 0.00 | 0.00 | 92 | 1020.2 |
| 20260508113053 | 47 | 0 | 0.0 | 2.0 | 0.00 | 0.00 | 0.00 | 92 | 1020.1 |
| 20260508111553 | 47 | 0 | 0.0 | 3.0 | 0.00 | 0.00 | 0.00 | 92 | 1020.1 |
| 20260508110056 | 47 | 0 | 0.0 | 0.0 | 0.00 | 0.00 | 0.00 | 92 | 1020.0 |
| 20260508104541 | 47 | 0 | 0.0 | 1.0 | 0.00 | 0.00 | 0.00 | 92 | 1019.9 |
| 20260508103050 | 47 | 0 | 0.0 | 1.0 | 0.00 | 0.00 | 0.00 | 92 | 1019.8 |
| 20260508101541 | 47 | 0 | 0.0 | 1.0 | 0.00 | 0.00 | 0.00 | 92 | 1019.7 |
| 20260508100043 | 47 | 0 | 0.0 | 1.0 | 0.00 | 0.00 | 0.00 | 92 | 1019.6 |
| 20260508094602 | 46 | 0 | 0.0 | 1.0 | 0.00 | 0.00 | 0.00 | 92 | 1019.4 |
| 20260508093041 | 46 | 0 | 0.0 | 2.0 | 0.00 | 0.00 | 0.00 | 92 | 1019.4 |
| 20260508091540 | 46 | 0 | 0.0 | 1.0 | 0.00 | 0.00 | 0.00 | 93 | 1019.3 |
| 20260508090039 | 46 | 0 | 0.0 | 1.0 | 0.00 | 0.00 | 0.00 | 93 | 1019.2 |
| 20260508084542 | 46 | 0 | 0.0 | 2.0 | 0.00 | 0.00 | 0.00 | 93 | 1019.1 |
| 20260508083057 | 46 | 0 | 0.0 | 2.0 | 0.00 | 0.00 | 0.00 | 93 | 1019.0 |
| 20260508081543 | 45 | 0 | 0.0 | 1.0 | 0.00 | 0.00 | 0.00 | 93 | 1018.9 |
| 20260508080040 | 45 | 0 | 0.0 | 1.0 | 0.00 | 0.00 | 0.00 | 92 | 1019.1 |
| 20260508074542 | 45 | 182 | 0.0 | 2.0 | 0.00 | 0.00 | 0.00 | 92 | 1019.1 |
| 20260508073040 | 45 | 0 | 0.0 | 0.0 | 0.00 | 0.00 | 0.00 | 91 | 1018.9 |
| 20260508071536 | 46 | 0 | 0.0 | 2.0 | 0.00 | 0.00 | 0.00 | 91 | 1018.7 |
| 20260508070044 | 46 | 0 | 1.0 | 3.0 | 0.00 | 0.00 | 0.00 | 91 | 1018.5 |
| 20260508064551 | 46 | 0 | 0.0 | 0.0 | 0.00 | 0.00 | 0.00 | 90 | 1018.5 |
| 20260508063041 | 46 | 0 | 0.0 | 1.0 | 0.00 | 0.00 | 0.00 | 90 | 1018.5 |
| 20260508061544 | 46 | 0 | 0.0 | 0.0 | 0.00 | 0.00 | 0.00 | 89 | 1018.5 |
| 20260508060041 | 47 | 0 | 0.0 | 1.0 | 0.00 | 0.00 | 0.00 | 88 | 1018.5 |
| 20260508054537 | 48 | 0 | 0.0 | 2.0 | 0.00 | 0.00 | 0.00 | 87 | 1018.5 |
| 20260508053046 | 48 | 170 | 1.0 | 2.0 | 0.00 | 0.00 | 0.00 | 87 | 1018.7 |
| 20260508051551 | 49 | 202 | 2.0 | 4.0 | 0.00 | 0.00 | 0.00 | 86 | 1018.7 |
| 20260508050042 | 50 | 217 | 0.0 | 2.0 | 0.00 | 0.00 | 0.00 | 84 | 1018.6 |
| 20260508044541 | 51 | 275 | 0.0 | 4.0 | 0.00 | 0.00 | 0.00 | 83 | 1018.7 |
| 20260508043042 | 51 | 247 | 0.0 | 4.0 | 0.00 | 0.00 | 0.00 | 83 | 1018.7 |
| 20260508041547 | 51 | 272 | 1.0 | 5.0 | 0.00 | 0.00 | 0.00 | 82 | 1018.5 |
| 20260508040046 | 52 | 255 | 1.0 | 7.0 | 0.00 | 0.00 | 0.00 | 81 | 1018.5 |
| 20260508034544 | 52 | 281 | 1.0 | 7.0 | 0.00 | 0.00 | 0.00 | 80 | 1018.3 |
| 20260508033041 | 52 | 292 | 3.0 | 8.0 | 0.00 | 0.00 | 0.00 | 80 | 1018.3 |
| 20260508031540 | 52 | 326 | 3.0 | 10.0 | 0.00 | 0.00 | 0.00 | 79 | 1018.3 |
| 20260508030039 | 53 | 271 | 3.0 | 7.0 | 0.00 | 0.00 | 0.00 | 79 | 1018.2 |
| 20260508024548 | 53 | 360 | 2.0 | 8.0 | 0.00 | 0.00 | 0.00 | 78 | 1018.2 |
| 20260508023041 | 54 | 298 | 2.0 | 11.0 | 0.00 | 0.00 | 0.00 | 76 | 1018.4 |
| 20260508021543 | 55 | 261 | 5.0 | 11.0 | 0.00 | 0.00 | 0.00 | 74 | 1018.5 |
| 20260508020041 | 55 | 333 | 4.0 | 10.0 | 0.00 | 0.00 | 0.00 | 74 | 1018.4 |
| 20260508014549 | 55 | 330 | 3.0 | 12.0 | 0.00 | 0.00 | 0.00 | 75 | 1018.6 |
| 20260508013043 | 55 | 332 | 5.0 | 11.0 | 0.00 | 0.00 | 0.00 | 74 | 1018.6 |
| 20260508011541 | 57 | 347 | 5.0 | 11.0 | 0.00 | 0.00 | 0.00 | 71 | 1018.6 |
| 20260508010044 | 57 | 237 | 5.0 | 12.0 | 0.00 | 0.00 | 0.00 | 72 | 1018.7 |
| 20260508004542 | 58 | 315 | 5.0 | 13.0 | 0.00 | 0.00 | 0.00 | 70 | 1018.9 |
| 20260508003056 | 58 | 277 | 5.0 | 13.0 | 0.00 | 0.00 | 0.00 | 69 | 1018.9 |
| 20260508001543 | 58 | 247 | 5.0 | 12.0 | 0.00 | 0.00 | 0.00 | 69 | 1018.9 |
| 20260508000044 | 58 | 22 | 5.0 | 15.0 | 0.00 | 0.00 | 0.00 | 68 | 1018.8 |
| 20260507234541 | 58 | 271 | 3.0 | 13.0 | 0.00 | 0.00 | 0.00 | 69 | 1018.8 |
| 20260507233041 | 59 | 295 | 5.0 | 13.0 | 0.00 | 0.00 | 0.00 | 68 | 1019.0 |
| 20260507231540 | 59 | 323 | 5.0 | 12.0 | 0.00 | 0.00 | 0.00 | 66 | 1019.1 |
| 20260507230042 | 59 | 332 | 7.0 | 14.0 | 0.00 | 0.00 | 0.00 | 67 | 1019.3 |
| 20260507224600 | 60 | 305 | 6.0 | 14.0 | 0.00 | 0.00 | 0.00 | 67 | 1019.6 |
| 20260507223052 | 60 | 15 | 5.0 | 13.0 | 0.00 | 0.00 | 0.00 | 66 | 1019.6 |